[[{"header":{"parameterUnit":"m.s-1","parameterCategory":1,"la1":30.2991,"la2":30.254,"lo1":-89.0895,"lo2":-89.0444,"dy":0.0017,"dx":0.0017,"nx":28,"ny":28,"refTime":"2024-03-18T03:00:00:Z","depth":0,"parameterNumber":2,"parameterNumberName":"U-component_of_WINDS"},"data":[0,0,0,0,0,0,0,0,0,0,0,0,0,0,0,0,0,0,0,0,0,0,0,0,0,0,0,0,0,0,0,0,0,0,0,0,0,0,0,0,0,0,0,0,0,0,0,0,0,0,0,0,0,0,0,0,0,0,-3.3385,-3.3386,0,-3.3482,-3.3483,-3.3485,-3.3396,-3.3392,-3.3389,-3.3385,-3.3484,-3.3489,-3.3495,0,0,0,0,0,0,0,0,0,0,0,0,0,-3.3118,-3.3124,-3.3385,-3.3386,-3.3387,-3.3482,-3.3483,-3.3485,-3.3396,-3.3392,-3.3388,-3.3383,-3.3482,-3.3489,-3.3496,0,0,0,0,0,0,0,0,0,0,0,0,0,-3.3227,-3.3125,-3.3385,-3.3355,-3.3353,-3.3482,-3.3484,-3.3485,-3.3397,-3.3392,-3.3386,-3.3381,-3.3479,-3.3488,-3.3497,-3.366,0,0,-3.3524,-3.3528,0,0,0,0,0,0,0,0,-3.3221,-3.3237,-3.3358,-3.3357,-3.3355,-3.3421,-3.3425,-3.3544,-3.3399,-3.338,-3.3385,-3.3379,-3.3467,-3.3477,-3.3507,-3.3665,-3.3669,-3.3525,-3.353,-3.3534,-3.3537,0,0,0,0,0,0,0,-3.3213,-3.3232,-3.3423,-3.336,-3.3358,-3.3335,-3.3344,-3.3447,-3.3453,-3.3382,-3.3375,-3.3388,-3.3465,-3.3498,-3.3509,-3.367,-3.3525,-3.3533,-3.3538,-3.3542,-3.3964,-3.3969,0,0,0,0,0,0,-3.3209,-3.3226,-3.342,-3.3426,-3.3273,-3.3344,-3.3355,-3.3406,-3.3451,-3.3453,-3.3393,-3.3384,-3.3486,-3.3498,-3.3512,-3.3705,-3.3534,-3.3543,-3.3548,-3.3958,-3.3965,-3.3971,0,0,0,0,0,0,-3.3204,-3.3228,-3.3416,-3.3325,-3.3347,-3.3354,-3.3412,-3.341,-3.3443,-3.346,-3.346,-3.3426,-3.3482,-3.3499,-3.3623,-3.3707,-3.3547,-3.3555,-3.3951,-3.396,-3.3968,-3.4093,0,0,0,0,0,0,-3.3197,-3.3226,-3.329,-3.3327,-3.3352,-3.3528,-3.3417,-3.3416,-3.3459,-3.3448,-3.3491,-3.3493,-3.3479,-3.361,-3.3632,-3.3716,-3.3562,-3.3944,-3.3955,-3.3965,-3.4081,-3.4105,-3.4125,0,0,0,0,0,-3.3187,-3.3321,-3.3293,-3.3317,-3.3432,-3.3533,-3.3548,-3.353,-3.3466,-3.3529,-3.3539,-3.3491,-3.3694,-3.3624,-3.3648,-3.3736,-3.3938,-3.3952,-3.3965,-3.4071,-3.41,-3.4124,0,0,0,0,0,0,-3.3294,-3.3325,-3.3295,-3.3445,-3.3487,-3.3518,-3.3597,-3.3561,-3.3621,-3.3609,-3.3583,-3.3593,-3.3724,-3.3742,-3.3664,-3.3894,-3.3806,-3.3824,-3.3879,-3.3906,-3.3927,-3.3921,-3.3569,0,0,0,0,0,-3.3334,-3.3415,-3.3438,-3.3568,-3.359,-3.359,-3.3634,-3.3616,-3.3658,-3.3676,-3.3695,-3.3737,-3.381,-3.3858,-3.3926,-3.4082,-3.4089,-3.4154,-3.4176,-3.4194,-3.421,-3.4292,-3.4321,-3.4014,-3.4014,-3.4014,0,0,-3.342,-3.3447,-3.35,-3.359,-3.362,-3.3703,-3.3606,-3.3698,-3.3759,-3.3689,-3.3808,-3.3823,-3.3868,-3.4009,-3.4072,-3.4028,-3.4296,-3.421,-3.4224,-3.4232,-3.4309,-3.4338,-3.4363,-3.4023,-3.4022,-3.402,0,0,-3.3618,-3.3647,-3.3758,-3.379,-3.3837,-3.3835,-3.3862,-3.3898,-3.3905,-3.4024,-3.3972,-3.4043,-3.417,-3.4203,-3.4237,-3.4444,-3.4402,-3.4466,-3.4581,-3.4661,-3.4685,-3.4706,-3.4779,-3.4806,-3.4483,-3.4483,-3.4483,0,-3.3718,-3.3842,-3.3819,-3.3915,-3.3955,-3.3894,-3.4005,-3.4037,-3.4104,-3.4133,-3.4082,-3.4238,-3.4264,-3.4411,-3.4461,-3.449,-3.4518,-3.4463,-3.4683,-3.4704,-3.4724,-3.4793,-3.4821,-3.4491,-3.449,-3.4489,-3.4488,0,-3.3962,-3.4049,-3.4132,-3.4198,-3.4247,-3.435,-3.4341,-3.4393,-3.437,-3.4373,-3.4493,-3.4521,-3.4593,-3.4626,-3.4605,-3.4769,-3.474,-3.4687,-3.4598,-3.4761,-3.4826,-3.4852,-3.4502,-3.4499,-3.4497,-3.4495,0,0,-3.4233,-3.4283,-3.4314,-3.4342,-3.4388,-3.4453,-3.4552,-3.4622,-3.4667,-3.4714,-3.4795,-3.4902,-3.4852,-3.489,-3.4871,-3.4941,-3.5102,-3.4879,-3.4879,-3.4919,-3.5283,-3.5323,-3.5355,-3.5073,-3.5078,-3.5082,-3.5279,0,-3.4433,-3.4605,-3.4586,-3.475,-3.4828,-3.477,-3.4855,-3.4892,-3.4897,-3.4963,-3.4967,-3.5043,-3.4972,-3.4994,-3.5061,-3.5068,-3.5175,-3.5054,-3.5148,-3.5151,-3.5139,-3.5389,-3.5432,-3.5617,-3.5304,-3.5309,-3.5312,0,-3.469,-3.4745,-3.4918,-3.4949,-3.4981,-3.5059,-3.512,-3.5184,-3.5223,-3.5221,-3.5262,-3.523,-3.5327,-3.5234,-3.5366,-3.5284,-3.5321,-3.533,-3.5336,-3.5345,-3.5242,-3.5405,-3.5676,-3.5704,-3.5351,-3.5348,-3.5345,0,-3.487,-3.4988,-3.5105,-3.5131,-3.5171,-3.5226,-3.5245,-3.5279,-3.5321,-3.5374,-3.5401,-3.5464,-3.5499,-3.5548,-3.5533,-3.5467,-3.5668,-3.5574,-3.5668,-3.5669,-3.5715,-3.5712,-3.5996,-3.5737,-3.5737,-3.5736,-3.5736,0,-3.5095,-3.5203,-3.5186,-3.5259,-3.5377,-3.5351,-3.5468,-3.5479,-3.5509,-3.5582,-3.5534,-3.5603,-3.5579,-3.5645,-3.5634,-3.5744,-3.576,-3.576,-3.5756,-3.5765,-3.5765,-3.579,-3.5777,-3.5744,-3.5742,-3.5741,-3.5739,0,-3.5318,-3.5311,-3.5435,-3.5462,-3.5471,-3.5556,-3.5578,-3.5645,-3.5644,-3.5737,-3.5757,-3.5756,-3.5831,-3.5821,-3.5905,-3.5897,-3.6034,-3.6014,-3.6022,-3.6017,-3.6112,-3.6103,-3.6422,-3.6462,-3.6177,-3.618,-3.6182,0,-3.5463,-3.5544,-3.5578,-3.5624,-3.5646,-3.572,-3.5762,-3.5739,-3.5785,-3.5834,-3.5895,-3.5966,-3.6022,-3.6145,-3.6151,-3.6215,-3.6196,-3.6303,-3.6205,-3.6211,-3.6197,-3.6193,-3.62,-3.6323,-3.6326,-3.6329,-3.6331,0,-3.5721,-3.5712,-3.5776,-3.5838,-3.589,-3.5938,-3.5981,-3.602,-3.6,-3.6054,-3.6131,-3.6174,-3.6259,-3.633,-3.6389,-3.6406,-3.6366,-3.6361,-3.6386,-3.6397,-3.6398,-3.6398,-3.6075,-3.6355,-3.6352,-3.6351,-3.6349,-3.6348,-3.5909,-3.5977,-3.6012,-3.6083,-3.6113,-3.6153,-3.6217,-3.6223,-3.6287,-3.6355,-3.6337,-3.6423,-3.6456,-3.6531,-3.6555,-3.6621,-3.6581,-3.6618,-3.6627,-3.6637,-3.6648,-3.6387,-3.6632,-3.6631,-3.663,-3.663,-3.6629,0,-3.6164,-3.6182,-3.6248,-3.6309,-3.6365,-3.6321,-3.6365,-3.6414,-3.6491,-3.6526,-3.6581,-3.6668,-3.6735,-3.6746,-3.6809,-3.686,-3.6843,-3.6878,-3.6874,-3.6878,-3.668,-3.6652,-3.689,-3.689,-3.689,-3.689,-3.689,-3.689,-3.6303,-3.6416,-3.6412,-3.6538,-3.6555,-3.664,-3.6669,-3.6705,-3.6732,-3.6831,-3.6887,-3.6893,-3.6917,-3.6982,-3.7041,-3.7042,-3.7067,-3.711,-3.7104,-3.6919,-3.6893,-3.6868,-3.6841,-3.7115,-3.7116,-3.7296,-3.7298,-3.7299]},{"header":{"parameterUnit":"m.s-1","parameterCategory":1,"la1":30.2991,"la2":30.254,"lo1":-89.0895,"lo2":-89.0444,"dy":0.0017,"dx":0.0017,"nx":28,"ny":28,"refTime":"2024-03-18T03:00:00:Z","depth":0,"parameterNumber":3,"parameterNumberName":"V-component_of_WINDS"},"data":[0,0,0,0,0,0,0,0,0,0,0,0,0,0,0,0,0,0,0,0,0,0,0,0,0,0,0,0,0,0,0,0,0,0,0,0,0,0,0,0,0,0,0,0,0,0,0,0,0,0,0,0,0,0,0,0,0,0,-6.6506,-6.6507,0,-6.6665,-6.6667,-6.6669,-6.6584,-6.658,-6.6575,-6.6571,-6.6731,-6.6739,-6.6747,0,0,0,0,0,0,0,0,0,0,0,0,0,-6.6122,-6.613,-6.6506,-6.6508,-6.651,-6.6665,-6.6667,-6.6669,-6.6585,-6.658,-6.6574,-6.6569,-6.6728,-6.6738,-6.6747,0,0,0,0,0,0,0,0,0,0,0,0,0,-6.6286,-6.6132,-6.6505,-6.6486,-6.6486,-6.6664,-6.6667,-6.667,-6.6586,-6.6579,-6.6573,-6.6567,-6.6725,-6.6737,-6.6749,-6.6954,0,0,-6.6787,-6.6792,0,0,0,0,0,0,0,0,-6.6277,-6.63,-6.6487,-6.6488,-6.6488,-6.6598,-6.659,-6.6765,-6.6587,-6.6548,-6.6571,-6.6564,-6.6691,-6.6706,-6.675,-6.6961,-6.6968,-6.6788,-6.6795,-6.68,-6.6804,0,0,0,0,0,0,0,-6.6265,-6.6293,-6.6568,-6.649,-6.6491,-6.6468,-6.6484,-6.6623,-6.6654,-6.6551,-6.6545,-6.6565,-6.669,-6.6738,-6.6753,-6.697,-6.6787,-6.6798,-6.6806,-6.6811,-6.7354,-6.736,0,0,0,0,0,0,-6.6256,-6.6284,-6.6563,-6.6573,-6.6365,-6.648,-6.6498,-6.6569,-6.6652,-6.6658,-6.6571,-6.6561,-6.672,-6.6739,-6.6758,-6.7002,-6.68,-6.6812,-6.6819,-6.7347,-6.7355,-6.7363,0,0,0,0,0,0,-6.6248,-6.6282,-6.6557,-6.6427,-6.646,-6.6493,-6.6574,-6.6576,-6.6624,-6.6667,-6.6671,-6.6614,-6.6716,-6.6741,-6.6905,-6.7006,-6.6817,-6.6829,-6.7338,-6.7349,-6.7359,-6.7491,0,0,0,0,0,0,-6.6237,-6.6279,-6.6359,-6.643,-6.6468,-6.6704,-6.658,-6.6584,-6.6646,-6.6634,-6.6709,-6.6715,-6.6713,-6.6887,-6.6918,-6.702,-6.6838,-6.7329,-6.7343,-6.7356,-6.7478,-6.7505,-6.7528,0,0,0,0,0,-6.6224,-6.639,-6.6364,-6.6398,-6.6569,-6.671,-6.6731,-6.6726,-6.6654,-6.6733,-6.6761,-6.6713,-6.699,-6.6905,-6.6938,-6.7046,-6.7323,-6.7339,-6.7355,-6.7467,-6.75,-6.7528,0,0,0,0,0,0,-6.633,-6.6399,-6.6371,-6.6565,-6.6632,-6.6695,-6.6795,-6.6762,-6.685,-6.6836,-6.6824,-6.6842,-6.7012,-6.7045,-6.6949,-6.7246,-6.7145,-6.7168,-6.7219,-6.7251,-6.7275,-6.7264,-6.6849,0,0,0,0,0,-6.6376,-6.6487,-6.654,-6.6706,-6.6741,-6.6763,-6.6824,-6.6814,-6.6883,-6.6911,-6.695,-6.7017,-6.7119,-6.7186,-6.7283,-6.7482,-6.7496,-6.7572,-6.7597,-6.7617,-6.7638,-6.7743,-6.7777,-6.7414,-6.7414,-6.7414,0,0,-6.6472,-6.6523,-6.6594,-6.6728,-6.678,-6.6892,-6.6787,-6.6912,-6.6994,-6.6929,-6.7087,-6.7118,-6.7191,-6.7374,-6.7456,-6.7406,-6.774,-6.7637,-6.7653,-6.7663,-6.7762,-6.7797,-6.7827,-6.7425,-6.7423,-6.7422,0,0,-6.6705,-6.6756,-6.6898,-6.6951,-6.703,-6.7043,-6.7077,-6.7145,-6.7163,-6.7322,-6.7274,-6.7371,-6.7548,-6.7602,-6.7652,-6.7902,-6.7861,-6.7934,-6.8065,-6.8167,-6.8196,-6.8221,-6.8309,-6.8341,-6.7954,-6.7954,-6.7954,0,-6.6814,-6.6984,-6.6976,-6.7104,-6.7163,-6.7109,-6.7252,-6.7304,-6.7409,-6.7451,-6.7394,-6.7613,-6.7659,-6.7851,-6.7912,-6.7956,-6.7992,-6.7926,-6.8193,-6.8218,-6.8241,-6.8325,-6.8358,-6.7962,-6.7961,-6.796,-6.796,0,-6.7113,-6.7231,-6.7337,-6.7441,-6.7512,-6.7647,-6.7657,-6.773,-6.7713,-6.7731,-6.7891,-6.7944,-6.8049,-6.8094,-6.8079,-6.8284,-6.825,-6.8194,-6.8092,-6.8284,-6.8362,-6.8395,-6.7974,-6.7971,-6.7969,-6.7967,0,0,-6.7419,-6.7516,-6.7554,-6.76,-6.7681,-6.7772,-6.7902,-6.8006,-6.8068,-6.8141,-6.8249,-6.8399,-6.8346,-6.8403,-6.8393,-6.8483,-6.8676,-6.8415,-6.8416,-6.8461,-6.8903,-6.8945,-6.8983,-6.8648,-6.8654,-6.8659,-6.8896,0,-6.7657,-6.7888,-6.7883,-6.8096,-6.8203,-6.8153,-6.8266,-6.8327,-6.8347,-6.8439,-6.8459,-6.8565,-6.8488,-6.8522,-6.8609,-6.8634,-6.8764,-6.8617,-6.8747,-6.8752,-6.873,-6.9024,-6.9069,-6.9291,-6.8927,-6.8932,-6.8936,0,-6.7965,-6.805,-6.8274,-6.8338,-6.8382,-6.8485,-6.8578,-6.8668,-6.8734,-6.8742,-6.8805,-6.878,-6.891,-6.8804,-6.8982,-6.8882,-6.8934,-6.8954,-6.8962,-6.8974,-6.8856,-6.9043,-6.9361,-6.9394,-6.8984,-6.898,-6.8977,0,-6.8164,-6.8334,-6.849,-6.853,-6.8609,-6.8681,-6.8717,-6.8778,-6.8839,-6.892,-6.8959,-6.9054,-6.9105,-6.9178,-6.9178,-6.9101,-6.9357,-6.9251,-6.9365,-6.9365,-6.9422,-6.9418,-6.9753,-6.9457,-6.9456,-6.9455,-6.9455,0,-6.843,-6.8569,-6.858,-6.8676,-6.8829,-6.882,-6.8971,-6.9,-6.9054,-6.9152,-6.9113,-6.9206,-6.92,-6.9294,-6.9294,-6.944,-6.9464,-6.9472,-6.947,-6.9476,-6.9475,-6.951,-6.9494,-6.9464,-6.9462,-6.946,-6.9459,0,-6.8679,-6.8692,-6.8858,-6.8918,-6.8936,-6.9046,-6.9096,-6.9186,-6.9201,-6.9326,-6.9355,-6.9378,-6.9486,-6.9493,-6.9617,-6.9617,-6.9794,-6.9775,-6.9772,-6.9768,-6.9881,-6.9871,-7.025,-7.0299,-6.9972,-6.9975,-6.9977,0,-6.8848,-6.8953,-6.9024,-6.9088,-6.9128,-6.9231,-6.9294,-6.9288,-6.9355,-6.9437,-6.9516,-6.962,-6.9703,-6.9877,-6.9904,-6.9998,-6.9981,-7.0107,-6.9995,-6.9996,-6.9982,-6.9975,-6.9985,-7.0129,-7.0133,-7.0136,-7.0138,0,-6.9145,-6.9146,-6.9238,-6.9333,-6.9409,-6.9483,-6.9552,-6.9605,-6.9607,-6.9684,-6.9794,-6.9858,-6.9984,-7.0087,-7.0179,-7.0212,-7.0176,-7.0173,-7.0205,-7.0211,-7.0204,-7.0208,-6.9831,-7.0165,-7.0162,-7.016,-7.0159,-7.0158,-6.9358,-6.9449,-6.9513,-6.9616,-6.9667,-6.9732,-6.9819,-6.9844,-6.9936,-7.004,-7.003,-7.0151,-7.0212,-7.0331,-7.0372,-7.0465,-7.0422,-7.0468,-7.0479,-7.049,-7.0502,-7.0189,-7.0482,-7.0481,-7.048,-7.048,-7.0479,0,-6.9653,-6.9691,-6.9786,-6.9884,-6.9964,-6.9923,-6.9996,-7.0066,-7.0174,-7.0235,-7.0317,-7.0442,-7.054,-7.0574,-7.067,-7.0738,-7.0723,-7.0763,-7.0758,-7.0766,-7.0535,-7.0499,-7.0773,-7.0773,-7.0773,-7.0773,-7.0773,-7.0773,-6.9816,-6.9966,-6.9974,-7.0149,-7.0185,-7.0304,-7.0349,-7.0408,-7.0456,-7.0598,-7.068,-7.0701,-7.0751,-7.0849,-7.0937,-7.0944,-7.0981,-7.1028,-7.1028,-7.0812,-7.0782,-7.0754,-7.0719,-7.1036,-7.1036,-7.125,-7.1252,-7.1254]}]]